Weather in Devonport

Australia     41°10′47″S   146°22′11″E
temp.,
°C
wind,
m/s
gust,
m/s
humid.,
%
clouds,
%
prec.,
mm/h
press.,
hPa
HPBL,
m
8 march, mon
mon823:00+12wsw1289100 0.0 1011116
02:00+12ssw119196 0.0 101144
05:00+11ssw229298 0.0 101051
08:00+13ssw1182100 0.0 101157
11:00+14nw1279100 0.1 1011133
14:00+15nnw3571100 0.1 1010376
17:00+18nw4665100 0.1 1009589
20:00+15wsw257596 0.0 1010135
9 march, tue
tue923:00+12ssw357854 0.0 1012170
02:00+11ssw367735 0.0 1011233
05:00+10sw348726 0.0 1011140
08:00+10sw367946 0.0 1013283
11:00+17sw354840 0.0 1014833
14:00+20sw46442 0.0 10141345
17:00+19sw47481 0.0 10141339
20:00+14wsw376718 0.0 1016479
10 march, wed
wed1023:00+10sw46779 0.0 1019164
02:00+8s33830 0.0 1020107
05:00+8s34772 0.0 1021140
08:00+11sse2460100 0.0 1022221
11:00+13se2354100 0.0 1023321
14:00+16n2257100 0.0 1022845
17:00+16n336459 0.0 1020590
20:00+12nne12880 0.0 1021211
11 march, thu
thu1123:00+13ese238819 0.1 1023267
02:00+11se358987 0.1 1021266
05:00+12sse348885 0.1 1020158
08:00+13se258582 0.0 1020187
11:00+18ene225960 0.0 1019808
14:00+19n226233 0.0 1018755
17:00+20n215953 0.0 1016564
20:00+15w118463 0.0 101731
12 march, fri
fri1223:00+14s228478 0.0 101846
02:00+13sse2284100 0.0 101746
05:00+13ssw2278100 0.0 101644
08:00+13s2275100 0.0 101768
11:00+20n224867 0.0 1017532
14:00+20n34570 0.0 1016473
17:00+19nnw34620 0.0 1014385
20:00+15nnw2279100 0.0 101688